Location: B?jaj?g
(11.7167°N, 92.6667°E)
Time: 05:28:00
(UTC+00:00)

USA 32 - Pass Details

Date: 18 September 2020
Orbit: 778 x 782 km, 85.0° (Epoch: 27 September)

Event Time Altitude Azimuth Distance (km) Brightness Sun altitude
Rises 22:26:00 0° 360° (N) 3,256 7.3 -18.6°
Reaches altitude 10° 22:28:21 10° 1° (N) 2,329 6.6 -18.0°
Maximum altitude 22:33:35 82° 89° (E) 791 4.1 -16.7°
Drops below altitude 10° 22:38:49 10° 176° (S) 2,330 6.5 -15.4°
Sets 22:41:10 0° 177° (S) 3,258 7.2 -14.9°
